"Pseudo-MPEC" for N00ex3p

Created 2019 Jul 1 17:07:13 UT using Find_Orb

Click here for an explanation of pseudo-MPECs

 
 Astrometry: 
     N00ex3p  S2019 05 31Vk*WNG2q@lAts%9ScSAar1U?3ij?y5#VJiij[0D/^Jk3rD,:,X%;C51
     N00ex3p  s2019 05 31R8_BW^24;P^*s)?*M(BQ+3?#1%q=]w3iir2!Vx5K(NU!WN_^W'6:C51
     N00ex3p  S2019 05 31/sL4kCKB0;e('f9%da*tbaHHEYO5ODxIJ2nG8jXSU:4BSmxT(8C:C51
     N00ex3p  s2019 05 31dBtnXI8VLbC@c[0Ahf\V.iI`-#hy?1:^ShRe7jvd,?^oTokv5'RwC51
     N00ex3p  S2019 05 31p!Astrometry]$XKredacted;Ww6q5C_g/Q1_o=$-g2VXbk_:h/oC51
     N00ex3p  s2019 05 31%3M*EJ@p:d0'Ma9200j=QVNc?Xclickb2MgyTrDXl;r0K7fm#PWmC51
     N00ex3p  S2019 06 01G/#uLAoOSWaZx:4J_mqTe'Y?sy2vOjDPSGYiu.B,I#*dk/#^WJajC51
     N00ex3p  s2019 06 01iZiVWr!H-HNfk#uh/xEnb6#eO]vSDfv%/R\'R7*992+6UsySrm.JC51
     N00ex3p  S2019 06 01[]-26Rx3Whereb?miL^sew,k\vFUuT'Cp6m+MU=ap+r2$e!P#up[C51
     N00ex3p  s2019 06 01;]Wl,ptO@dwK7RC/mm:e%?*ZI-U?-j[DGw7Tm1]3OZ8@f5PY\DxaC51
     N00ex3p  S2019 06 01c(Bg5Q,wvAAC2QewiRLIkmjZC#=g$+*Lt,Xq(l%r%18jO#5vmp?qC51
     N00ex3p  s2019 06 013`MkE1Fq+,*V4^#m0(XforH^X9g6Nc)x\T1w'WB9#nx/x/w62DF:C51
     N00ex3p KC2019 06 04#oR5b@Kj)UifcTcE1_8hSjw+yNA1sB%vkX1-x]w'l@m/O0T:pF)#474
     N00ex3p KC2019 06 047Z/6/*\'Xq_C$]V?LPf\YwjtG7WJ(73rt\xnp;8NSr^rE58[H5%B474
     N00ex3p KC2019 06 046pSaxEtqElE\k!P;=BCp;(B:qZO?JT`Ko!I:Pt:v@vAA68#Zbb*2474
     N00ex3p KC2019 06 053?a,i;H)f_j2iLe^aZ]wL`W5Xs?j`8+m[F;eg3$1FmOL2hOs2qNr474
     N00ex3p KC2019 06 05(c*]NbuY/WYKv^1^Ga1Y):-+LXYx`w(Z0Y/ihf9#Rp4jqO!QX;8=474
     N00ex3p KC2019 06 05Apw?Vt!M.1,=TN^WhZtKHdBR@M0[e(#5%vFSRsa=YXr-)Oq=Iveh474
     N00ex3p KC2019 06 05q.F\i1dF!iwGvO@7Fyor`f!67r93^'+/5QkY=UYxVet__e`8[Xx!474
     N00ex3p 1C2019 06 05448,N%D/0TEbEXY!7wSHNa!9G9NZ7)nA.E=1yMxt`yf]Shy[)TNQQ62
     N00ex3p 1C2019 06 05mWe^`Yd\Yr6X6GWRNV'4/mK5$QXZIK740QmNg'G$_7K=CTMJB6qHQ62
     N00ex3p |C2019 06 23S,L*K+dt0Uct-VIt]JxCa$:*2g/.WV0g]o8h3fRCOM*`PXwT1@;i807
     N00ex3p |C2019 06 234y!U.c3i@wV#lHEZ4Q#XaX.?UexplanationbPPW?1@ts^ab$^[+807
     N00ex3p |C2019 06 23@ZeU1BMj]_RnoSxLr=]m7WQxs/6lDA2$`A5\H%?-2B'u-Gqknby`807

Station data:
(474) Mount John Observatory, Lake Tekapo  (S43.987388 E170.464960)  New
   Zealand.  Observers A. C. Gilmore, P. M. Kilmartin. Measurer P. M.
   Kilmartin. 1.0-m f/7.7 reflector + CCD.
(807) Cerro Tololo Observatory, La Serena  (S30.169136 W70.805900)  Chile.
(C51) WISE. Measurers A. Mainzer, E. Wright, J. Bauer, T. Grav, J. Dailey, J.
   Masiero, R. Cutri, R. McMillan, R. Walker.
(Q62) iTelescope Observatory, Siding Spring  (S31.273289 E149.064420)
   Australia/NSW. 0.50-m f/6.8 astrograph + CCD + focal reducer, 0.70-m f/6.6
   astrograph + CCD.

Orbital elements:  N00ex3p
   Perihelion 2019 Aug 5.896803 +/- 0.297 TT = 21:31:23 (JD 2458701.396803)
Epoch 2019 Jun 23.0 TT = JDT 2458657.5   Earth MOID: 0.2449   Ve: 0.0432
M 348.42552066 +/- 0.9              (J2000 ecliptic)          AutoNEOCP
n   0.26367476 +/- 0.0197           Peri.   18.42610 +/- 0.33
a   2.40855740 +/- 0.121            Node   321.63518 +/- 0.16
e   0.6897930 +/- 0.016             Incl.   37.46756 +/- 0.36
P   3.74                   H 19.8   G  0.15   U 10.1  
q 0.74715120 +/- 0.00155    Q 4.06996361 +/- 0.271
From 18 observations 2019 May 31-June 23; mean residual 0".72
Residuals in arcseconds: 
190531 C51  .33+  .35+    190604 474  .25+  .65-    190605 474  .79-  .02+    
190531 C51  .74-  .32-    190604 474  .05-  .36+    190605 Q62  .17-  .23-    
190531 C51  .74-  .35+    190604 474  1.1+  .15-    190605 Q62  .38+  .35+    
190601 C51  .79-  .04-    190605 474  .78+  .13-    190623 807  .13+  1.4+    
190601 C51  1.0-  .41+    190605 474  .05-  .45-    190623 807  .75+  1.9+    
190601 C51  .36-  .37+    190605 474  .64-  .06-    190623 807  .07+  2.1+    

Ephemerides (geocentric):
Date (UTC) HH   RA              Dec         delta   r     elong  mag " sig PA
---- -- -- --  -------------   -----------  ------ ------ -----  --- ---- ---
2019 07 01 17  05 00 26.731   -39 36 46.52  .42538 .93584  66.9 20.9 13.0  52
2019 07 01 18  05 00 28.432   -39 32 52.16  .42500 .93546  66.9 20.9 13.1  52
2019 07 01 19  05 00 30.136   -39 28 57.34  .42463 .93508  66.8 20.9 13.1  52
2019 07 01 20  05 00 31.841   -39 25 02.04  .42426 .93470  66.8 20.9 13.2  53
2019 07 01 21  05 00 33.548   -39 21 06.28  .42389 .93433  66.7 20.9 13.3  53
2019 07 01 22  05 00 35.258   -39 17 10.04  .42352 .93395  66.7 20.9 13.4  53
2019 07 01 23  05 00 36.970   -39 13 13.34  .42315 .93357  66.6 20.9 13.4  53
2019 07 02 00  05 00 38.683   -39 09 16.16  .42278 .93319  66.6 20.9 13.5  54
2019 07 02 01  05 00 40.399   -39 05 18.51  .42242 .93281  66.5 20.9 13.6  54
2019 07 02 02  05 00 42.117   -39 01 20.38  .42205 .93243  66.5 20.9 13.7  54
2019 07 02 03  05 00 43.838   -38 57 21.78  .42168 .93206  66.4 20.9 13.8  54
2019 07 02 04  05 00 45.560   -38 53 22.70  .42131 .93168  66.4 20.9 13.8  54
2019 07 02 05  05 00 47.285   -38 49 23.14  .42094 .93130  66.3 20.9 13.9  55
2019 07 02 06  05 00 49.012   -38 45 23.10  .42058 .93093  66.3 20.9 14.0  55
2019 07 02 07  05 00 50.741   -38 41 22.58  .42021 .93055  66.2 20.9 14.1  55
2019 07 02 08  05 00 52.472   -38 37 21.58  .41984 .93017  66.2 20.9 14.1  55
2019 07 02 09  05 00 54.206   -38 33 20.10  .41948 .92980  66.1 20.9 14.2  56
2019 07 02 10  05 00 55.942   -38 29 18.13  .41911 .92942  66.1 20.9 14.3  56
2019 07 02 11  05 00 57.680   -38 25 15.68  .41875 .92904  66.0 20.9 14.4  56
2019 07 02 12  05 00 59.421   -38 21 12.74  .41838 .92867  66.0 20.9 14.4  56
2019 07 02 13  05 01 01.164   -38 17 09.32  .41802 .92829  65.9 20.9 14.5  57
2019 07 02 14  05 01 02.909   -38 13 05.41  .41765 .92792  65.9 20.9 14.6  57
2019 07 02 15  05 01 04.657   -38 09 01.01  .41729 .92754  65.8 20.9 14.7  57
2019 07 02 16  05 01 06.407   -38 04 56.11  .41693 .92717  65.8 20.9 14.8  57
2019 07 02 17  05 01 08.160   -38 00 50.73  .41656 .92679  65.7 20.9 14.8  58
2019 07 02 18  05 01 09.915   -37 56 44.85  .41620 .92642  65.7 20.9 14.9  58
2019 07 02 19  05 01 11.672   -37 52 38.48  .41584 .92604  65.6 20.9 15.0  58
2019 07 02 20  05 01 13.432   -37 48 31.62  .41548 .92567  65.6 20.9 15.1  58
2019 07 02 21  05 01 15.194   -37 44 24.26  .41512 .92530  65.5 20.9 15.1  59
2019 07 02 22  05 01 16.959   -37 40 16.40  .41475 .92492  65.5 20.9 15.2  59
2019 07 02 23  05 01 18.726   -37 36 08.04  .41439 .92455  65.4 20.9 15.3  59
2019 07 03 00  05 01 20.496   -37 31 59.19  .41403 .92418  65.4 20.9 15.4  59
2019 07 03 01  05 01 22.268   -37 27 49.83  .41367 .92380  65.3 20.9 15.5  60
2019 07 03 02  05 01 24.043   -37 23 39.98  .41331 .92343  65.2 20.9 15.5  60
2019 07 03 03  05 01 25.821   -37 19 29.62  .41296 .92306  65.2 20.9 15.6  60
2019 07 03 04  05 01 27.601   -37 15 18.75  .41260 .92269  65.1 20.9 15.7  60
2019 07 03 05  05 01 29.383   -37 11 07.38  .41224 .92232  65.1 20.9 15.8  61
2019 07 03 06  05 01 31.169   -37 06 55.51  .41188 .92194  65.0 20.9 15.9  61
2019 07 03 07  05 01 32.957   -37 02 43.13  .41152 .92157  65.0 20.9 15.9  61
2019 07 03 08  05 01 34.747   -36 58 30.24  .41117 .92120  64.9 20.9 16.0  61
2019 07 03 09  05 01 36.540   -36 54 16.84  .41081 .92083  64.9 20.9 16.1  62
2019 07 03 10  05 01 38.336   -36 50 02.94  .41045 .92046  64.8 20.9 16.2  62
2019 07 03 11  05 01 40.135   -36 45 48.52  .41010 .92009  64.8 20.9 16.3  62
2019 07 03 12  05 01 41.936   -36 41 33.59  .40974 .91972  64.7 20.9 16.3  63
2019 07 03 13  05 01 43.740   -36 37 18.14  .40939 .91935  64.7 20.9 16.4  63
2019 07 03 14  05 01 45.547   -36 33 02.18  .40904 .91898  64.6 20.9 16.5  63
2019 07 03 15  05 01 47.357   -36 28 45.71  .40868 .91861  64.6 20.9 16.6  63
2019 07 03 16  05 01 49.169   -36 24 28.72  .40833 .91824  64.5 20.9 16.7  64